Theta_e
322 323 322 322 322 321 320 321 319 318 318 318 318 318 317 317 318 319 316 320 320 322 319 321 319 316 318 322 321 320 321 322 322 323 323 323 323 321 315 317 321 324 328 329 329 330 329 329 330 330 331 331 331 331 331 331 331 330 330 330 330 330 329 329 329 328 327 326 326 326 325 324 324 324 324 324 323 323 323 324 323 323 323 322 322
322 322 321 322 322 320 319 321 320 319 317 320 316 317 319 316 316 317 318 319 322 320 319 322 322 320 318 320 321 321 320 321 321 321 322 322 322 322 314 315 318 322 325 327 328 329 330 330 330 330 330 331 332 332 331 331 331 331 331 331 330 330 330 329 329 328 328 328 328 328 328 327 326 325 324 324 324 324 324 324 324 324 323 324 323
322 321 321 322 321 320 319 320 319 319 318 320 316 318 317 320 321 321 322 321 321 317 318 321 321 321 317 316 321 319 321 320 319 319 320 322 321 320 320 313 315 318 322 325 327 328 329 330 330 330 331 332 332 332 332 332 331 331 331 331 331 331 330 331 330 330 329 329 329 329 329 328 327 326 325 326 325 325 325 324 324 324 324 324 324
323 321 321 321 320 319 319 318 320 319 317 319 318 316 319 319 317 316 316 317 319 318 317 319 321 320 317 317 317 318 319 319 319 319 319 320 320 320 320 320 314 315 317 320 323 325 327 328 329 330 331 330 331 331 331 331 332 331 332 331 331 331 332 331 332 331 330 330 330 328 328 329 328 327 327 326 326 325 325 325 325 325 324 325 325
323 323 320 321 320 319 318 317 319 319 317 317 317 317 317 318 318 312 315 318 319 320 316 316 318 320 316 318 316 317 317 316 317 317 319 319 320 319 320 320 320 314 314 315 318 321 324 326 327 329 330 330 330 331 331 331 331 332 332 332 332 332 332 332 331 331 330 330 330 330 330 329 328 328 328 327 326 326 326 325 325 325 325 326 325
324 323 322 322 320 319 320 318 318 318 316 315 318 319 321 321 321 319 317 319 320 319 318 320 319 316 316 317 315 317 316 317 318 318 318 318 318 318 318 319 318 319 319 314 314 316 320 323 325 326 327 327 328 329 329 330 330 331 332 332 332 332 332 332 331 331 331 331 330 330 330 331 330 329 328 328 328 327 327 326 326 326 325 325 325
324 324 322 322 321 320 319 321 320 319 319 318 320 319 320 322 319 321 319 318 317 317 317 318 317 318 318 316 318 318 316 316 316 316 317 317 316 317 317 317 317 318 318 318 313 313 315 319 322 324 325 326 326 327 327 328 329 330 331 331 331 332 332 331 331 331 331 330 329 329 329 329 329 329 328 328 327 327 327 327 326 326 326 326 326
323 324 322 321 322 321 322 321 319 318 319 318 318 320 320 319 317 319 321 320 316 319 315 318 317 318 318 316 316 315 316 316 316 316 317 315 316 316 317 316 316 317 313 317 317 315 313 315 318 320 321 322 323 324 325 327 328 328 329 330 330 330 330 329 330 331 330 329 328 328 328 328 328 328 328 329 328 327 329 328 327 327 327 327 326
323 322 323 321 321 322 322 320 318 319 318 317 318 320 319 319 317 314 318 321 318 319 318 317 318 318 317 317 317 317 317 319 318 317 316 316 316 316 316 316 316 309 316 316 316 316 314 312 314 315 315 316 319 321 324 325 326 327 326 326 328 329 328 328 329 328 328 327 327 328 327 327 327 327 327 327 328 327 328 329 327 329 328 327 328
322 322 323 322 321 321 321 318 317 317 318 317 318 317 318 318 318 315 315 317 318 318 319 319 317 316 316 317 318 318 318 318 318 314 315 315 316 316 315 314 315 315 315 315 315 315 315 313 311 312 311 312 315 318 321 323 323 324 324 326 327 328 327 327 327 326 326 326 326 325 324 324 325 325 326 326 327 327 327 327 327 327 328 328 328
323 322 322 321 320 321 320 317 317 317 317 316 317 315 315 316 318 319 316 317 318 317 317 319 317 316 315 316 317 317 318 317 316 315 314 314 313 312 313 314 313 314 313 313 313 314 313 314 314 314 314 310 312 315 317 319 318 320 322 324 325 326 325 325 325 325 325 324 324 324 324 324 324 324 324 325 325 326 326 326 327 327 328 328 326
323 322 322 322 321 320 320 318 318 319 319 318 317 316 316 317 316 318 318 315 314 316 316 316 316 315 315 316 316 316 317 316 315 313 313 313 313 312 313 313 312 312 311 312 312 312 312 312 310 312 312 311 310 311 312 314 313 316 320 322 323 324 324 323 323 323 323 323 323 323 323 323 324 324 324 325 325 325 326 326 326 327 327 327 327
323 323 323 321 322 322 321 319 319 319 320 320 321 320 319 319 318 318 319 317 317 316 316 315 314 316 316 314 316 318 315 313 312 312 314 313 312 311 311 311 312 311 310 310 311 311 311 311 311 311 311 311 311 309 310 310 310 315 318 320 321 322 323 323 323 322 322 322 322 323 323 324 324 324 325 325 325 325 325 326 326 327 327 327 327
324 324 324 323 323 322 321 320 319 319 319 321 321 318 320 319 318 317 316 318 317 316 315 315 315 315 313 313 315 315 314 311 311 313 312 312 310 310 310 310 311 310 309 310 311 310 310 310 310 310 311 311 311 311 311 310 311 311 315 316 318 320 322 322 322 321 320 321 321 322 323 323 323 323 323 324 324 324 325 325 325 326 326 326 326
326 325 324 324 323 323 322 322 320 319 319 319 319 319 320 319 318 318 315 311 313 314 315 317 316 312 313 311 308 309 314 314 308 310 317 315 309 310 308 309 309 309 308 309 311 311 310 310 310 310 310 310 310 310 310 307 307 307 310 311 312 318 321 321 322 321 321 321 321 321 321 321 322 322 323 323 323 323 324 324 324 324 323 325 325
327 326 325 326 325 324 323 322 321 320 320 320 320 318 317 318 318 317 316 312 312 315 313 314 316 317 311 308 307 306 306 311 310 316 313 310 310 311 307 309 310 310 309 312 311 310 310 310 309 309 309 309 309 309 309 309 307 306 306 305 308 316 319 321 322 322 321 320 319 319 320 320 320 320 321 321 322 322 322 322 323 323 323 323 323
328 327 325 326 326 325 324 323 322 320 321 321 319 319 319 318 319 318 316 316 314 312 310 311 314 319 317 309 308 306 307 309 311 312 312 315 315 309 309 310 311 310 310 310 309 309 309 309 309 309 309 309 308 308 308 309 309 307 308 306 311 314 315 319 320 320 319 319 319 317 317 318 318 318 319 319 319 320 320 321 321 322 322 322 321
328 327 326 325 326 326 326 325 323 321 320 322 322 321 319 318 318 319 317 318 318 316 313 310 312 315 317 316 314 312 310 310 311 308 314 312 311 308 309 309 307 309 310 310 310 310 309 308 309 309 308 308 308 308 308 308 307 308 308 309 313 314 313 314 317 316 316 317 316 315 316 317 316 316 317 317 317 317 317 318 319 320 321 321 321
328 328 327 326 326 326 325 325 323 323 320 321 321 321 320 319 319 317 318 317 317 316 315 315 311 312 313 313 310 309 313 312 308 308 306 310 311 311 312 309 308 310 310 310 309 310 309 308 309 309 309 308 308 307 307 307 306 306 306 309 312 312 311 309 309 311 312 313 314 315 315 315 315 315 316 316 316 315 315 315 316 316 316 317 318
328 328 328 326 325 325 325 324 324 323 320 321 322 322 321 318 316 318 318 316 315 316 317 316 314 313 310 310 310 310 310 311 311 309 306 303 307 312 312 310 312 311 310 309 309 309 308 308 308 309 308 308 307 307 307 306 306 305 305 307 308 307 308 308 308 307 308 310 313 314 314 314 314 313 314 314 314 314 315 315 314 314 315 315 316
328 328 328 327 324 326 326 325 324 324 319 323 323 321 319 318 315 315 316 315 314 316 317 315 314 315 309 309 309 308 306 306 306 307 304 302 305 306 307 310 310 311 309 309 309 309 308 308 308 307 307 307 307 306 305 305 305 304 302 303 305 306 306 307 306 306 307 307 309 310 311 312 313 313 312 312 312 313 313 313 314 314 314 314 314
327 328 328 328 326 325 325 325 324 324 318 320 319 318 318 319 318 316 317 316 315 316 315 315 314 313 313 310 308 304 304 304 304 303 303 305 302 302 304 303 302 306 308 307 307 307 308 308 308 308 308 307 306 305 304 304 302 301 299 299 302 303 305 304 305 305 306 306 306 306 308 309 310 311 311 311 312 312 312 312 312 313 313 313 314
326 326 327 327 327 326 325 325 325 322 320 321 320 320 319 319 319 317 316 315 313 313 312 313 312 311 311 311 311 309 307 304 303 302 305 302 300 301 303 304 303 302 305 306 305 306 307 308 307 307 307 305 304 303 302 301 297 296 295 297 298 300 302 304 304 304 305 305 305 305 306 306 306 308 309 310 311 311 311 311 311 311 311 312 312
326 325 325 326 326 325 324 325 324 323 322 321 321 321 319 318 318 317 316 315 314 311 312 311 311 310 310 310 310 308 307 307 307 308 306 304 303 301 301 302 302 302 304 305 306 306 307 306 306 306 304 303 301 301 299 299 297 294 295 295 297 298 300 302 303 303 304 304 304 303 304 304 305 305 306 308 310 310 311 310 310 310 311 311 311
323 324 325 325 325 324 324 324 324 323 323 321 320 319 319 317 316 315 314 312 313 312 312 312 311 310 308 308 308 307 306 307 308 307 306 305 303 301 302 302 298 299 302 302 302 303 304 304 305 302 302 300 300 299 298 297 296 294 294 294 295 296 297 299 301 302 302 302 302 302 303 303 304 305 306 306 307 308 309 308 309 309 310 310 310
324 324 325 325 325 325 324 324 324 324 323 322 321 320 317 316 315 314 312 313 313 313 312 309 309 308 308 307 306 306 306 306 306 305 304 304 302 300 298 298 298 297 299 299 300 299 302 304 303 300 299 299 298 298 296 295 295 294 293 293 294 294 295 296 298 300 301 301 301 301 301 301 303 303 303 305 305 306 306 307 307 307 308 308 308
325 325 325 324 324 325 324 324 323 323 321 320 319 318 316 314 313 313 311 311 310 310 309 309 308 307 307 305 304 304 304 305 304 303 304 302 301 300 297 294 294 296 296 297 298 299 297 300 297 298 297 297 297 295 294 294 293 293 292 293 293 293 293 295 297 298 299 299 299 300 300 300 301 302 302 301 302 302 304 305 305 306 306 306 306
324 324 324 324 323 323 322 322 322 321 319 318 317 316 314 313 311 310 309 308 308 308 308 308 307 306 304 304 303 302 302 302 302 301 301 301 300 300 298 295 292 288 291 291 295 293 296 296 297 295 296 295 295 294 292 292 292 292 291 292 292 292 292 293 295 297 297 297 297 298 298 299 300 300 300 300 300 300 300 301 301 301 301 302 303
322 323 322 322 322 321 320 319 319 318 316 315 314 314 313 311 310 309 308 308 308 306 305 304 303 303 302 302 300 299 299 299 297 297 297 297 298 298 298 296 294 292 290 290 289 291 293 296 294 297 295 294 292 293 292 291 291 291 291 291 291 291 291 292 294 296 296 297 296 297 298 298 298 299 299 299 299 299 300 300 300 301 301 302 303
320 319 320 318 318 313 316 315 314 314 313 312 311 311 310 309 308 307 306 304 302 301 301 300 299 298 297 295 295 294 295 295 295 295 294 294 295 296 295 295 295 292 291 288 287 291 292 293 292 291 293 291 291 290 291 290 290 290 290 290 290 289 290 290 292 293 293 294 295 296 297 297 298 298 298 298 298 299 300 300 300 300 301 302 302
315 316 316 314 313 312 312 310 310 309 309 309 308 308 306 304 303 301 301 302 300 297 296 296 295 295 293 292 293 293 294 293 292 292 293 294 294 294 294 293 293 292 290 289 286 290 290 288 290 292 290 289 289 289 289 290 289 289 289 289 289 288 289 289 290 290 291 292 293 295 296 297 297 298 298 298 298 299 299 299 299 299 300 300 300
316 315 313 311 309 308 307 307 306 306 305 304 304 304 303 301 299 298 298 298 296 293 292 293 293 292 291 290 290 290 290 290 288 288 289 290 292 292 292 291 291 291 291 289 287 287 290 288 289 289 289 288 288 287 288 288 289 288 288 288 288 288 288 288 288 289 290 291 293 294 295 296 297 297 297 297 298 298 298 298 298 298 299 298 298
312 310 308 307 306 305 304 303 302 301 301 300 300 300 299 297 297 296 295 294 291 290 289 288 288 289 288 287 287 288 290 289 287 287 287 288 289 289 290 289 289 289 288 287 285 285 288 289 287 287 287 287 286 288 286 287 287 287 287 287 287 287 287 287 288 288 289 290 292 293 294 295 296 296 296 296 296 296 297 298 298 297 296 296 297
308 306 305 304 304 304 303 302 301 300 299 299 297 298 297 295 294 294 293 292 289 288 288 287 287 287 287 287 286 287 288 288 288 287 287 287 288 288 288 287 287 286 287 285 284 284 284 286 285 287 286 287 285 287 285 285 285 286 286 286 287 287 287 287 287 288 289 290 291 292 293 294 294 294 294 294 294 295 297 297 295 294 294 295 295
302 304 303 302 302 301 300 299 298 297 298 297 297 297 296 295 293 292 291 290 289 288 287 286 287 288 288 288 287 287 288 287 287 287 288 287 287 287 286 286 285 285 285 285 283 282 282 282 285 284 284 285 285 284 285 285 285 286 285 285 286 287 287 287 287 288 289 290 291 292 292 292 292 292 293 293 293 293 293 294 294 293 293 293 293
300 299 301 300 299 298 297 296 295 295 295 295 295 295 295 293 291 289 289 289 288 287 286 285 287 287 287 287 287 287 287 286 286 286 287 287 286 286 285 285 284 284 284 284 284 282 282 281 283 283 284 283 284 285 285 285 285 285 285 285 286 286 286 287 287 287 288 290 290 291 291 291 291 291 291 292 292 292 293 293 292 292 292 292 291
298 298 296 297 296 296 295 294 294 293 292 292 292 291 290 291 289 288 287 286 286 286 286 286 286 287 287 286 286 286 287 286 285 285 286 285 285 285 284 284 283 284 284 284 283 283 282 281 281 284 284 284 284 284 285 283 284 284 285 285 285 285 286 287 287 288 288 289 289 289 289 290 290 290 290 291 291 291 291 291 291 291 291 290 290
296 296 296 295 295 293 292 292 291 291 290 291 290 289 288 287 287 287 286 286 286 286 286 286 286 287 286 286 286 286 286 285 285 285 285 284 284 284 283 283 283 283 283 283 283 282 282 282 282 281 283 282 282 283 284 284 282 282 283 284 285 285 285 285 286 287 288 287 287 288 288 288 288 288 289 289 290 290 290 290 290 290 289 289 289
295 293 292 292 291 292 291 291 290 289 289 289 288 287 287 286 286 286 286 286 286 286 286 286 286 286 286 285 285 285 285 285 284 284 284 284 284 283 283 283 283 283 282 282 282 282 282 281 281 282 282 283 282 281 283 284 284 283 282 281 281 284 284 285 284 286 287 287 288 288 287 287 286 286 287 288 289 288 289 289 289 289 288 287 288
293 292 292 291 290 290 290 289 289 288 288 287 287 287 287 287 286 286 286 285 285 285 285 285 285 285 284 284 284 284 284 285 285 284 284 284 284 283 284 283 283 282 282 282 282 282 281 281 280 280 281 281 282 283 284 283 282 282 283 282 280 281 282 284 285 284 285 285 284 284 286 286 286 286 287 287 287 287 288 287 287 287 286 287 289
292 291 291 290 289 287 287 287 287 287 287 286 286 286 286 286 286 286 286 285 285 284 284 284 284 284 284 284 284 284 285 284 284 285 285 284 284 283 283 284 283 282 282 282 282 281 281 281 280 281 280 280 281 281 280 280 280 280 281 282 281 282 282 282 283 285 285 283 283 283 283 284 284 284 284 284 285 285 286 286 286 285 286 288 289
290 289 289 289 288 287 286 286 286 286 286 286 285 286 286 286 286 286 285 285 285 284 283 283 283 283 283 283 283 283 283 283 284 285 285 285 285 284 284 284 283 282 282 281 281 281 280 279 279 279 279 279 280 280 280 281 282 281 281 281 280 281 281 281 282 283 284 283 281 281 282 284 284 283 283 283 285 285 284 284 284 285 286 288 289
288 288 288 287 286 286 286 286 286 286 286 286 287 288 287 287 286 285 284 284 284 283 283 282 281 281 282 282 282 282 283 283 284 284 285 285 285 284 284 284 284 283 282 281 281 281 280 279 279 279 279 279 280 281 280 280 280 280 280 281 280 280 278 277 275 279 283 282 280 280 280 284 284 281 282 283 284 284 284 283 286 286 287 288 288
286 287 286 286 286 286 286 286 286 286 287 288 289 288 288 287 285 284 284 283 283 282 282 282 281 281 281 281 282 282 283 283 283 283 283 284 284 284 284 284 284 284 284 283 281 279 280 279 279 279 279 279 279 279 279 279 279 280 280 280 279 278 277 276 276 276 280 282 279 279 279 282 282 281 281 282 283 283 283 285 286 287 287 288 288
286 285 285 285 285 286 286 286 286 287 288 289 289 288 287 287 286 284 283 282 282 281 281 281 281 280 280 281 281 281 281 281 282 283 284 284 284 283 283 283 283 283 282 283 283 282 282 279 279 278 279 278 278 278 280 280 281 279 279 278 278 278 277 276 277 277 279 281 280 279 277 279 281 280 279 281 282 283 283 284 286 287 287 287 287
285 284 285 285 285 285 285 285 286 286 287 288 289 288 287 286 285 283 282 282 281 281 281 280 280 280 280 280 280 280 281 282 282 283 284 284 283 283 282 282 281 280 280 281 281 280 280 280 279 277 279 280 278 279 281 282 279 278 278 277 277 276 276 276 277 278 280 282 279 277 276 278 280 279 278 280 282 282 282 284 285 286 286 287 286
284 284 284 284 284 284 285 285 285 286 287 288 288 287 287 286 285 283 281 281 281 280 280 280 280 280 280 281 281 281 281 281 283 284 283 282 282 281 279 278 279 279 280 280 280 280 279 280 279 279 279 280 280 281 281 281 280 279 279 278 277 277 277 277 278 279 279 281 280 277 274 277 279 278 278 280 281 281 281 284 284 285 285 286 286
283 283 283 284 283 283 284 284 285 285 287 288 287 287 286 285 284 281 281 280 280 280 280 280 280 280 280 280 280 281 281 281 284 284 282 281 279 276 275 277 277 278 279 280 279 279 279 279 279 279 280 280 282 281 281 280 279 280 279 278 278 277 275 274 274 276 276 279 279 277 275 275 278 277 277 279 280 279 280 280 283 283 284 285 285
282 282 282 283 283 283 283 283 284 285 286 287 287 286 285 284 282 280 280 280 279 279 279 279 280 280 280 280 280 281 281 282 284 284 282 280 276 275 275 275 276 276 277 278 278 278 278 278 278 279 280 281 282 281 280 280 280 279 276 275 274 274 273 272 273 274 274 276 278 278 275 274 277 277 277 278 279 278 279 279 280 282 283 283 283
282 281 281 281 282 282 282 283 283 283 284 285 286 286 285 283 281 280 280 279 278 278 278 279 279 279 280 281 281 281 282 282 283 283 282 279 276 275 275 274 273 273 276 276 275 274 275 276 276 277 279 280 279 278 278 279 279 278 274 271 273 274 272 273 271 272 273 275 277 278 275 274 276 277 276 277 278 278 278 278 278 279 280 281 282
281 280 280 280 280 280 281 282 281 282 283 284 285 285 284 283 281 280 279 279 277 277 278 278 278 278 279 280 281 282 282 282 283 282 280 278 276 275 275 274 273 273 274 273 271 271 271 271 272 274 275 276 275 275 275 277 276 275 275 274 274 273 272 272 272 272 270 273 276 278 274 274 275 276 276 274 272 275 277 277 277 277 277 278 278
Wind_Speed
6 5 4 4 3 3 2 2 2 2 1 1 1 1 1 1 1 1 1 1 1 2 2 1 0 1 1 1 1 1 1 1 2 2 2 2 2 4 6 6 7 8 9 10 11 12 12 12 12 13 14 15 15 15 16 15 15 16 14 14 15 16 16 16 17 15 14 15 16 16 16 16 16 16 16 17 16 16 17 17 16 16 17 16 16
6 5 5 5 4 4 3 3 3 2 2 2 1 1 1 1 1 1 1 1 1 1 2 2 2 1 1 2 2 1 1 1 2 2 2 2 2 3 6 6 7 8 9 9 11 12 12 13 14 14 14 15 16 17 17 17 17 16 17 16 15 15 16 17 17 17 17 18 17 19 19 18 18 17 18 18 18 18 18 18 18 19 19 18 18
6 6 5 6 5 4 4 3 3 3 3 3 2 2 1 1 1 1 0 0 1 0 0 1 2 2 1 1 2 1 2 1 1 2 2 2 2 2 4 6 6 7 8 9 10 11 13 14 14 15 16 16 17 17 18 18 18 19 19 18 18 17 16 16 16 15 17 19 18 19 20 20 19 19 20 20 20 19 19 20 21 20 20 19 20
6 6 6 6 5 5 4 4 5 4 3 3 3 2 2 2 1 1 1 1 0 1 1 1 1 1 1 2 2 2 2 2 2 2 2 2 2 2 2 3 5 6 7 8 9 10 12 13 14 14 16 17 17 18 19 19 19 20 21 20 20 19 18 19 18 17 18 16 20 20 20 20 21 20 23 23 21 21 21 21 21 21 21 20 21
7 7 7 6 6 6 5 5 5 4 4 4 3 2 2 2 1 1 1 1 1 1 0 1 2 1 1 2 1 2 2 2 2 2 3 3 3 3 3 3 4 5 6 5 7 9 10 11 12 13 15 16 18 18 19 20 20 21 21 22 22 21 21 21 20 21 19 16 18 18 17 20 23 22 23 21 22 23 22 22 24 23 22 22 22
6 7 6 6 5 6 6 6 6 5 4 3 3 3 2 2 2 1 1 1 2 1 1 2 1 1 2 2 2 2 1 3 2 3 2 3 2 3 3 3 3 3 3 5 5 7 9 10 11 12 13 14 15 17 18 19 20 20 21 22 23 23 23 22 22 22 22 22 21 20 17 16 18 21 22 19 21 23 23 25 26 25 26 25 25
6 5 6 6 6 6 6 5 4 4 4 4 3 2 2 3 2 2 1 1 1 1 2 2 2 3 2 1 3 2 2 3 3 3 3 3 2 3 3 3 3 3 3 3 4 5 7 9 11 11 13 14 15 16 16 17 18 19 20 20 21 22 23 22 22 23 23 22 22 22 21 22 21 19 21 21 22 25 25 25 26 26 26 26 27
8 6 6 6 7 6 5 3 4 3 3 3 3 3 3 2 2 2 3 3 2 3 2 2 2 3 2 2 2 2 3 3 4 3 3 2 2 3 2 3 3 3 3 3 3 4 6 8 10 11 12 13 14 14 15 16 16 17 18 19 20 20 21 21 22 23 24 23 22 22 22 22 22 23 23 23 22 21 22 25 25 27 28 28 30
7 7 6 7 7 5 4 4 3 4 4 3 3 3 3 3 2 3 3 3 2 4 3 2 2 2 3 4 4 3 4 4 4 3 2 3 4 3 3 3 3 4 2 3 3 3 5 6 8 10 10 11 12 13 14 15 17 17 18 19 19 20 20 21 22 22 22 23 23 22 22 23 24 25 25 24 25 24 21 22 21 25 25 28 28
9 8 7 5 5 5 3 4 4 3 3 4 4 3 3 4 4 4 4 3 4 3 4 2 2 2 3 4 5 4 4 4 4 2 2 4 4 3 3 3 3 3 2 2 3 3 4 5 6 7 8 9 11 13 14 16 17 18 18 19 19 20 22 22 21 21 22 22 22 22 23 25 26 26 26 26 27 26 26 27 25 23 22 23 25
7 8 6 5 5 4 4 5 4 3 3 2 2 3 2 2 4 4 3 4 3 3 3 2 2 2 3 5 4 5 4 4 3 2 2 3 4 4 2 3 3 3 3 3 3 3 3 3 3 4 5 8 10 12 13 15 15 16 18 19 20 20 21 22 22 21 21 21 23 22 22 23 24 24 25 26 26 27 27 27 26 27 25 23 24
8 7 7 6 5 5 5 5 6 6 5 4 4 4 6 7 6 4 3 3 2 2 1 2 2 3 5 4 4 5 6 4 2 2 2 3 3 2 3 2 2 2 2 2 2 3 3 3 3 4 4 6 9 9 11 12 13 14 17 18 19 19 20 20 21 21 22 22 22 22 23 23 23 24 24 25 25 25 26 27 27 26 26 26 23
7 7 7 6 6 5 5 4 4 4 5 6 7 7 6 3 3 6 7 5 3 3 3 2 1 3 1 2 5 4 6 3 3 2 3 2 1 2 1 2 1 1 2 2 3 2 3 4 4 3 4 5 6 8 8 9 10 14 16 18 18 19 19 19 20 21 20 21 22 22 23 23 24 24 24 24 25 25 26 27 28 28 27 26 26
8 8 7 7 6 5 7 6 6 6 6 6 7 6 5 4 3 2 1 4 3 2 2 3 1 2 3 6 3 4 3 1 1 1 3 2 2 1 0 0 1 1 2 2 3 3 3 3 3 4 4 5 5 6 7 8 7 12 15 16 17 18 19 19 20 22 22 23 23 23 24 24 24 25 26 26 27 27 27 28 28 28 28 28 28
9 9 7 8 7 7 6 7 7 7 5 4 5 6 6 7 6 4 2 1 2 1 3 4 2 1 1 2 2 5 4 2 1 3 6 2 0 1 1 1 1 1 2 2 2 3 3 3 4 5 5 5 5 6 6 7 8 11 13 14 15 18 19 20 20 22 23 23 24 24 24 24 24 25 25 26 26 26 27 27 28 29 29 29 29
9 10 8 8 8 8 8 7 8 8 8 6 5 5 4 4 5 6 4 3 3 3 4 5 4 2 3 1 1 1 3 1 4 6 2 1 1 1 1 0 1 3 2 4 4 3 4 3 4 4 4 4 5 5 5 6 10 10 11 12 14 17 21 21 21 22 23 24 25 25 25 25 25 26 26 27 27 27 28 28 28 28 29 29 29
8 10 9 9 9 7 7 7 7 6 6 5 5 7 8 8 8 7 8 7 5 4 3 4 6 4 3 1 1 1 3 1 6 4 2 2 1 1 1 2 4 3 3 3 2 3 3 4 4 4 4 4 4 5 5 6 6 7 9 12 16 20 21 21 22 23 24 24 24 25 26 26 26 27 27 28 29 29 29 30 29 29 29 29 29
9 9 9 8 10 12 10 8 9 7 6 8 7 5 5 7 8 7 7 7 6 4 4 2 4 5 5 5 1 3 3 1 3 2 2 2 3 1 1 3 2 2 3 3 4 4 2 3 3 4 4 4 4 4 4 5 6 6 8 11 20 20 21 22 22 23 23 24 24 24 24 25 26 27 27 28 30 31 31 31 31 30 30 30 30
9 9 9 9 8 8 10 11 11 10 8 7 8 9 8 8 5 6 6 5 5 7 7 4 2 3 4 4 2 2 1 2 3 2 7 2 0 2 0 2 1 4 4 4 7 5 3 3 4 4 4 3 4 4 4 5 6 7 11 17 19 21 21 22 21 21 23 24 24 24 25 25 26 27 27 28 29 30 31 31 32 32 32 32 32
9 9 9 9 8 7 7 7 7 8 7 6 8 9 7 6 6 7 5 7 8 8 7 4 5 1 1 3 2 1 1 0 1 2 2 7 4 2 2 2 6 5 4 8 7 2 5 5 5 4 3 3 3 4 5 6 7 8 8 19 21 22 21 21 20 20 21 22 23 23 24 25 26 27 28 28 29 29 30 30 31 32 32 33 33
10 10 10 9 9 9 9 8 8 8 7 8 7 7 9 8 7 6 7 7 7 6 4 5 5 5 3 1 2 2 2 1 2 3 1 2 9 8 8 5 6 1 6 8 5 2 3 3 2 3 3 4 5 7 7 7 8 9 12 19 20 20 20 21 21 21 21 22 23 24 25 26 26 27 28 28 28 28 28 29 29 30 31 32 33
9 10 10 10 9 9 8 9 9 7 6 6 6 6 6 7 8 9 7 7 6 5 7 4 5 4 4 4 4 2 2 1 2 2 1 3 6 7 7 8 11 10 11 9 11 11 9 7 5 4 4 6 8 7 8 8 8 8 10 17 19 21 21 22 21 21 21 22 23 24 25 26 26 27 28 28 28 29 29 29 30 30 31 31 31
9 9 9 10 10 10 9 8 8 8 7 7 8 9 8 8 7 7 7 8 6 6 4 3 4 4 4 5 5 4 4 3 4 2 2 1 2 4 3 2 5 11 6 8 10 11 8 6 6 7 7 8 7 7 7 8 9 12 15 16 19 21 22 23 23 23 23 24 25 25 25 26 26 27 28 28 28 29 29 30 30 30 31 31 32
9 8 8 9 8 8 9 9 8 7 8 7 7 7 7 7 6 7 7 6 6 6 5 5 5 4 4 3 4 4 3 3 3 3 3 2 2 3 4 4 6 6 5 6 8 7 4 5 3 5 7 7 7 7 8 9 10 17 16 18 20 22 23 23 24 24 24 24 25 25 26 26 27 28 28 29 29 30 30 31 31 31 32 32 32
8 9 9 11 9 8 8 8 8 8 8 7 6 7 7 7 6 7 6 7 7 7 6 6 7 6 5 2 4 5 5 3 3 4 3 3 2 4 4 2 5 7 5 3 3 3 2 3 3 5 6 7 7 8 9 10 10 15 18 15 20 21 23 24 24 24 24 24 24 25 25 26 27 28 28 29 29 30 30 31 31 31 32 32 33
9 9 9 10 9 9 9 8 8 8 7 7 7 7 7 6 7 7 7 6 6 7 7 7 6 7 6 6 5 5 5 5 5 4 3 1 1 2 3 3 5 7 3 2 1 1 2 2 5 5 6 6 6 7 9 10 10 15 17 13 14 18 21 23 24 24 24 24 24 25 25 26 27 28 28 29 29 30 31 31 31 31 32 33 33
9 9 8 9 9 8 9 8 7 7 6 6 6 7 7 5 5 7 6 5 6 6 6 9 10 9 8 8 7 5 5 5 5 4 3 2 2 1 0 5 3 3 2 2 2 3 0 1 4 4 3 4 7 8 8 9 10 14 14 12 11 16 18 21 22 23 23 24 24 25 25 26 27 28 28 28 29 29 31 31 31 31 32 33 33
8 7 8 8 8 8 8 8 7 6 6 6 6 7 7 7 5 6 7 6 8 7 5 7 9 11 10 8 7 6 4 5 5 4 3 3 2 2 1 2 2 3 1 1 1 1 2 2 1 4 7 10 8 10 11 11 10 14 12 10 10 11 16 20 21 21 22 23 23 24 25 26 26 27 27 28 28 29 29 30 31 31 31 32 33
8 8 8 7 7 7 7 6 6 6 6 6 6 7 8 8 7 8 8 7 9 10 8 8 7 8 7 7 7 6 5 5 5 4 3 3 3 3 2 2 2 1 2 1 0 1 1 3 1 2 8 7 7 7 8 8 10 11 9 9 9 9 14 19 19 19 20 21 22 24 24 24 24 25 26 27 27 28 29 30 30 31 31 32 33
8 7 7 7 6 7 6 6 6 6 7 6 7 7 7 8 8 8 9 9 9 7 7 8 7 7 8 7 6 6 4 5 5 5 5 4 4 3 2 2 2 1 1 2 3 2 2 1 2 3 4 6 7 7 6 7 8 10 9 8 9 10 16 16 17 18 20 21 23 24 24 24 25 26 27 28 28 28 28 29 30 31 32 33 34
6 6 6 6 6 6 6 6 7 8 8 8 8 8 8 9 8 8 7 9 10 9 6 7 6 7 8 9 7 7 6 6 6 5 5 5 4 4 4 3 3 2 2 1 2 2 1 3 2 3 7 8 7 7 6 6 7 9 8 9 9 12 14 10 14 17 20 22 23 23 24 25 26 27 28 28 28 29 29 30 31 31 32 33 33
7 7 6 7 7 7 7 8 7 7 9 8 9 9 8 9 9 8 7 8 9 10 8 6 7 8 9 9 8 7 5 5 6 6 5 5 5 4 4 4 4 3 1 1 3 6 2 4 5 6 8 9 8 8 8 6 6 7 10 9 10 11 9 9 11 17 20 22 24 25 26 26 27 27 28 28 28 30 31 31 31 32 32 32 32
6 7 7 8 8 8 8 9 9 7 9 9 7 9 10 9 7 9 8 9 12 9 9 9 8 9 9 10 8 6 5 6 6 6 6 5 5 5 5 4 4 4 3 0 2 7 3 2 5 6 8 10 9 9 10 9 9 9 10 9 9 9 9 9 11 16 19 21 23 25 26 27 26 26 26 27 29 30 30 31 31 31 32 32 32
7 7 7 8 8 10 10 9 9 9 9 9 8 9 10 10 8 7 8 9 10 9 8 9 8 7 9 10 9 8 5 7 6 7 5 5 5 6 5 5 5 5 4 2 2 3 6 4 5 5 7 9 9 8 11 14 13 11 11 8 6 7 8 9 10 11 18 20 23 25 25 25 25 26 27 28 29 30 31 31 31 31 31 31 32
4 7 9 9 9 9 9 9 9 7 8 9 6 9 10 11 10 8 7 9 9 9 9 8 7 7 8 8 7 6 5 7 7 7 5 7 6 7 7 6 5 5 4 3 2 3 5 6 5 8 8 9 8 11 11 9 10 10 11 10 8 7 5 7 9 10 16 23 25 24 23 23 25 26 28 28 29 29 29 30 30 30 30 31 32
8 6 7 9 8 9 10 9 8 9 8 8 7 6 10 11 10 9 7 8 8 8 9 9 8 8 8 8 7 7 7 8 8 7 7 7 7 7 7 6 5 5 4 3 3 3 4 7 6 8 8 9 9 8 8 9 11 12 10 10 7 7 7 7 9 10 13 22 24 24 22 21 23 27 30 29 28 28 28 28 28 29 30 31 31
8 8 7 6 9 8 8 10 10 9 8 9 9 8 8 8 9 9 9 9 8 8 8 8 8 8 7 8 7 7 6 9 8 7 7 8 7 7 7 6 5 4 3 4 4 4 4 7 8 6 7 7 7 8 9 12 13 12 10 10 10 9 8 9 10 11 16 17 15 18 20 21 22 26 30 29 27 26 26 26 27 28 29 30 30
8 7 9 6 8 9 9 8 8 9 9 8 9 9 10 9 10 9 8 9 9 8 8 7 7 6 8 8 7 6 7 8 8 8 7 8 7 7 7 5 4 4 4 4 4 4 5 6 7 8 6 8 9 6 8 11 13 15 16 13 9 5 8 11 10 9 11 13 10 9 11 16 21 27 29 25 24 25 24 24 26 28 29 30 30
11 9 8 9 6 9 9 9 9 9 9 9 10 10 10 11 11 10 9 9 9 8 8 8 7 8 8 8 8 7 8 8 9 8 8 8 7 7 6 5 5 5 5 5 5 6 6 7 6 6 8 7 7 10 9 9 9 10 14 18 20 15 11 10 11 11 10 10 15 18 16 16 19 18 24 24 22 23 25 25 25 27 28 29 30
9 10 10 10 7 7 8 8 8 8 9 9 10 10 10 9 10 9 10 10 10 9 9 9 10 9 8 8 7 7 7 7 8 8 8 7 7 6 5 5 6 6 5 5 6 6 6 6 6 7 7 9 8 6 7 10 12 11 11 12 16 19 18 17 14 13 10 10 14 15 14 13 12 16 20 20 16 18 23 22 23 24 28 29 31
8 9 9 10 10 9 7 7 8 7 8 8 7 8 9 9 9 10 10 10 10 10 11 11 9 8 8 7 7 7 8 9 10 8 9 7 5 6 5 5 5 5 5 5 5 5 6 6 6 6 7 8 9 11 12 12 12 12 14 14 15 15 16 17 15 10 10 14 14 17 16 13 13 11 12 13 12 14 17 19 19 24 29 30 30
9 8 9 9 9 10 10 8 8 8 7 6 8 11 9 10 10 9 8 9 9 9 10 10 9 8 8 7 8 10 10 10 10 10 10 9 7 5 4 4 4 4 3 4 4 5 5 6 7 8 9 9 10 11 12 11 11 12 13 14 15 16 16 15 14 7 9 11 17 18 16 12 12 15 14 13 12 12 14 14 15 22 27 31 30
9 8 10 11 10 9 10 9 10 7 6 6 14 13 14 14 10 9 10 9 9 9 8 9 10 9 8 7 7 7 8 7 8 9 9 8 6 6 6 5 4 3 2 3 3 4 4 5 6 7 8 9 10 10 10 11 11 12 12 12 14 14 14 15 16 15 8 16 17 18 17 13 12 15 14 12 12 16 14 16 29 30 29 30 30
7 7 10 11 9 8 7 8 8 7 7 11 15 15 15 14 10 9 9 9 8 8 8 9 9 8 9 8 6 4 4 4 3 2 1 1 5 5 5 5 4 5 5 3 2 3 4 5 6 6 7 8 9 9 10 11 12 13 12 12 12 12 14 14 13 13 13 16 17 17 18 14 14 15 15 13 11 11 15 24 30 31 29 29 30
9 11 11 10 9 8 8 9 9 8 9 13 16 16 16 16 15 11 8 8 9 9 8 9 9 9 8 8 7 4 2 2 2 2 2 1 2 5 4 4 6 7 6 6 6 4 4 4 5 6 6 8 9 8 10 12 12 13 13 12 12 12 12 13 12 13 15 14 13 14 17 16 14 17 17 15 14 17 20 22 31 31 30 30 31
11 10 9 10 8 9 9 9 8 8 10 13 17 17 17 17 16 12 8 9 9 9 9 9 8 8 8 8 8 5 3 3 2 3 3 4 4 3 3 4 4 4 5 5 6 7 5 3 4 6 7 7 8 10 11 11 11 11 11 12 13 14 14 14 16 14 11 9 10 13 15 15 15 17 19 17 19 19 15 23 27 27 30 31 32
10 8 9 9 9 9 9 8 8 8 7 16 17 18 18 18 17 13 9 9 9 9 8 8 8 8 7 6 7 7 5 3 3 5 5 5 5 4 4 3 3 2 2 3 5 5 4 4 5 5 7 7 8 9 10 9 10 9 10 11 13 13 14 16 14 11 9 7 11 11 12 14 13 16 18 19 19 16 17 24 23 25 29 31 32
6 7 5 6 9 9 8 9 9 9 10 16 17 17 18 18 17 9 9 9 9 9 8 7 7 6 6 5 5 5 4 2 4 10 8 6 6 5 4 3 2 2 1 4 7 7 7 6 5 6 6 7 9 8 9 10 9 9 8 8 7 9 12 13 14 12 11 8 10 10 11 14 12 13 19 18 17 18 19 14 19 22 27 30 31
9 7 7 7 6 9 9 10 10 10 10 13 16 17 18 19 13 8 9 8 8 9 7 7 6 6 5 4 4 4 3 3 7 9 11 9 5 5 4 3 2 1 1 3 7 9 10 11 11 10 9 9 9 11 13 14 11 10 8 9 9 10 11 12 13 13 13 12 10 10 12 14 13 13 17 19 20 18 14 14 15 20 25 29 29
10 7 6 7 5 6 9 9 10 12 11 13 16 17 17 16 11 10 8 8 9 8 8 6 5 5 6 6 4 3 5 6 8 8 10 8 5 5 5 4 2 1 2 3 4 5 9 10 10 10 10 7 10 12 12 12 13 12 8 8 10 10 10 10 12 13 15 12 7 10 13 12 14 13 13 16 19 11 7 10 13 18 23 21 29
8 6 7 7 7 4 4 7 8 11 11 12 16 17 17 17 11 8 8 8 9 8 8 7 5 5 4 3 5 6 6 7 9 9 10 7 4 5 4 4 3 2 2 3 3 5 6 7 6 6 6 8 7 6 7 11 12 11 8 8 9 9 10 11 11 12 12 10 10 15 14 14 15 14 12 12 13 18 10 8 12 15 16 15 17
Wind_Direction
177 180 171 182 177 182 190 192 167 158 160 154 171 133 99 73 63 63 28 21 8 29 3 39 89 68 6 317 348 306 294 301 303 306 298 290 299 297 301 301 301 302 300 302 304 309 313 316 318 319 319 318 317 314 315 314 310 308 303 298 294 290 289 289 290 289 284 285 285 276 274 263 265 268 267 266 264 267 268 270 270 265 265 266 260
180 176 177 193 192 193 202 206 207 183 179 202 196 170 163 130 104 65 47 9 10 20 350 346 343 3 37 327 310 314 285 275 289 286 288 290 283 289 289 294 293 293 296 296 296 298 303 309 312 313 313 313 313 313 312 312 311 309 307 304 298 292 286 287 287 290 296 292 286 286 283 277 276 261 259 263 263 263 259 263 266 263 265 266 266
180 179 189 193 196 200 209 207 217 213 205 205 188 189 158 132 137 124 68 46 343 341 300 315 312 317 19 306 290 295 286 282 268 272 273 269 270 267 277 277 278 285 288 292 295 294 297 301 305 308 309 310 310 310 311 312 311 309 307 306 305 303 304 300 294 286 281 278 274 276 283 283 274 262 259 271 270 264 262 265 263 263 261 261 263
181 184 188 191 197 204 203 207 223 218 212 206 191 188 171 147 125 114 128 179 203 234 237 260 284 285 295 265 263 269 274 277 283 275 274 272 269 269 271 279 272 269 281 292 295 298 298 300 301 303 306 308 310 311 311 310 310 311 309 306 306 307 307 306 305 299 296 296 299 291 279 276 272 261 262 269 271 270 268 257 257 263 265 256 254
191 186 190 197 201 201 204 213 221 216 213 208 190 174 169 169 148 159 169 190 233 243 211 235 251 262 267 259 262 257 250 265 256 260 261 270 277 281 278 280 283 283 277 282 292 296 300 302 304 305 307 310 312 313 313 312 312 311 309 308 309 310 310 309 308 308 311 309 292 290 292 290 280 278 275 277 272 266 264 265 266 264 257 254 257
187 193 192 196 198 205 208 214 216 208 204 194 195 191 193 192 195 190 212 236 252 278 292 275 262 252 251 265 259 272 283 270 261 260 261 264 266 276 282 285 289 296 303 293 286 299 301 304 307 309 311 313 314 317 318 317 315 313 313 314 316 315 314 317 318 319 320 322 323 321 308 293 288 286 284 276 268 269 267 268 268 260 258 261 260
191 183 197 199 200 206 212 212 196 188 186 198 197 179 192 211 177 215 209 229 249 244 251 264 277 284 277 266 286 288 267 271 273 268 263 267 270 275 279 282 291 296 287 293 297 292 300 303 307 311 315 317 320 321 321 322 321 320 319 319 319 321 322 325 327 326 326 326 325 323 323 319 311 298 283 280 270 266 271 275 271 265 264 268 271
194 189 194 200 205 206 211 191 178 171 184 175 185 196 188 202 198 203 215 238 233 247 186 242 251 272 270 263 262 258 265 262 263 265 261 276 274 281 284 289 288 281 287 293 308 311 298 302 310 316 318 318 318 318 320 323 326 327 326 326 324 324 324 324 324 325 326 328 327 326 325 325 322 321 319 313 306 300 288 277 274 275 272 266 262
192 192 191 198 205 207 207 184 165 180 172 171 196 197 187 189 192 201 214 233 210 248 230 216 240 258 277 291 283 265 267 266 264 269 286 277 295 294 293 295 284 283 293 320 318 312 312 310 315 315 314 314 315 316 320 325 330 332 332 330 328 327 327 328 330 329 330 328 328 330 329 328 326 324 322 319 317 314 305 299 298 279 277 276 269
196 194 198 188 191 202 179 168 167 176 180 184 200 175 188 185 200 189 197 203 230 232 263 259 227 256 297 282 275 271 269 271 270 287 306 303 295 297 307 305 296 307 339 336 323 318 316 317 310 306 308 314 317 320 324 329 332 333 332 332 331 331 332 333 333 332 329 327 326 325 324 323 322 321 321 319 317 316 314 311 307 302 294 285 281
189 190 193 185 188 194 183 168 170 175 176 190 188 177 177 222 204 193 201 221 237 226 245 276 294 294 275 274 282 278 275 265 283 303 296 283 289 292 305 294 310 359 348 340 335 326 316 316 325 329 323 319 317 322 325 327 330 330 330 333 333 332 331 332 331 329 329 328 326 325 324 320 317 315 312 312 313 313 312 311 310 308 305 295 291
189 186 190 187 188 188 191 173 178 175 179 182 203 206 193 179 215 214 198 219 231 238 224 241 267 266 267 278 273 275 270 274 301 298 294 269 268 297 292 318 338 8 354 336 324 314 309 327 335 328 321 321 317 318 323 326 327 326 332 337 337 336 334 334 333 333 332 330 327 325 322 319 317 317 315 311 310 312 313 312 311 309 307 305 302
190 184 192 192 193 187 178 167 187 191 182 192 194 201 215 234 223 188 199 213 232 207 217 186 243 280 163 276 296 254 270 312 303 280 250 251 253 263 281 312 23 354 354 326 318 323 339 347 337 326 324 321 322 327 325 326 325 332 336 339 339 338 338 337 337 336 333 331 331 330 330 330 330 328 326 322 318 314 312 311 313 313 313 312 310
194 186 188 184 182 184 190 184 181 191 203 210 196 186 183 200 177 242 226 201 227 193 171 157 230 259 314 315 290 307 304 13 350 270 259 251 248 229 243 311 344 353 335 332 332 339 347 336 326 326 324 326 329 334 336 337 335 334 334 337 337 337 343 343 342 340 339 338 336 335 334 333 331 329 328 327 324 323 322 321 318 317 317 317 316
199 194 189 191 192 190 193 191 188 190 193 200 179 196 199 179 170 215 182 346 281 220 180 209 263 148 200 306 322 343 339 4 349 275 311 342 191 233 75 52 330 316 345 312 323 342 343 336 331 334 328 330 329 329 327 325 327 322 330 336 336 338 346 346 344 342 340 338 336 335 334 333 331 329 327 325 324 322 321 319 318 316 316 314 313
202 199 190 193 194 191 190 194 195 186 189 193 192 197 182 181 178 200 169 188 213 225 197 197 219 154 303 204 265 112 316 29 346 309 318 315 353 71 69 108 309 30 357 354 344 336 327 335 330 325 320 317 319 325 324 327 328 328 335 338 335 340 347 346 342 341 340 337 335 334 332 331 329 327 325 324 322 321 319 317 315 315 313 311 309
203 204 200 183 185 193 193 195 192 194 183 182 189 202 195 198 181 184 189 203 222 219 219 192 217 222 180 221 312 233 220 252 330 305 350 42 260 107 109 55 45 18 316 310 310 309 317 327 324 317 313 315 322 325 324 328 334 339 341 346 344 350 348 345 342 340 338 336 335 334 332 331 330 329 328 326 324 321 320 319 317 315 313 311 309
204 204 207 208 192 193 190 186 197 188 188 189 188 182 196 199 199 190 193 199 220 182 220 182 222 229 222 200 205 289 314 249 353 307 300 263 324 33 64 79 88 334 311 318 335 330 338 321 321 320 323 325 329 326 330 334 341 347 356 348 354 353 350 346 342 340 338 337 336 334 332 331 330 329 328 326 324 323 322 320 320 318 316 315 313
205 204 205 209 211 204 200 194 189 194 200 185 192 200 196 202 169 179 198 176 179 226 222 190 162 239 232 243 299 7 110 268 285 295 321 22 188 116 207 126 166 350 339 331 336 335 347 340 332 328 335 340 338 337 341 352 353 357 351 358 357 353 350 346 343 340 339 338 337 336 335 334 333 331 329 327 325 324 322 320 319 318 316 315 313
200 202 205 203 202 202 202 206 204 197 179 195 204 208 190 184 181 189 167 176 181 209 225 172 197 190 167 202 256 70 33 37 129 203 278 302 295 243 162 167 340 341 345 332 338 4 343 338 333 337 340 344 337 2 7 10 18 11 9 3 357 353 349 347 345 343 342 340 338 337 336 334 332 330 329 327 325 323 322 320 319 318 317 315 314
199 200 203 201 198 203 200 201 203 203 194 203 208 179 191 178 172 178 187 188 196 203 199 207 190 206 139 135 109 112 77 83 131 111 171 266 298 317 317 309 313 190 341 331 330 311 335 327 304 323 344 356 22 23 22 24 24 21 10 1 355 351 350 349 347 346 344 342 340 340 337 335 334 332 329 327 325 323 322 320 319 318 317 316 315
199 202 200 200 200 203 202 202 205 203 192 200 181 188 199 192 183 191 182 181 195 179 204 194 189 169 180 147 141 113 118 96 85 104 121 214 263 307 323 339 337 328 339 335 337 339 341 347 350 7 15 24 28 28 25 24 21 17 0 358 355 354 352 350 348 347 345 344 343 341 338 337 335 332 329 328 326 325 324 322 321 320 318 317 315
194 203 203 200 199 196 200 204 203 197 191 192 195 196 197 196 185 177 179 186 183 182 180 156 159 164 170 165 167 168 174 162 176 176 156 190 262 267 303 330 311 307 320 333 322 318 328 341 350 347 8 20 28 23 24 16 15 8 359 0 356 355 353 351 349 347 346 344 344 342 340 337 334 332 330 329 328 327 326 324 323 321 319 317 316
194 195 199 200 199 200 200 196 200 200 201 200 197 194 187 184 187 189 190 184 163 164 169 162 161 146 145 138 135 131 110 107 132 159 157 209 216 277 305 313 303 268 281 295 290 289 309 324 336 8 23 29 25 19 11 7 3 5 360 357 355 355 353 350 347 346 345 344 343 342 339 337 334 333 332 331 330 330 328 326 324 322 321 320 318
190 194 199 198 198 197 196 202 196 202 200 189 191 184 178 175 175 179 170 174 174 163 164 178 165 159 138 109 106 101 104 102 124 133 128 147 171 292 288 306 275 288 288 282 285 302 336 308 39 49 51 35 24 16 8 1 359 1 358 351 353 352 350 347 345 344 343 341 340 338 337 335 334 333 333 332 332 331 329 327 326 324 322 321 320
191 197 198 194 193 197 195 198 197 193 197 194 184 176 170 173 164 163 169 170 163 158 151 151 143 121 118 113 104 115 120 127 128 122 137 159 264 258 292 279 271 271 266 270 267 17 1 330 59 65 42 41 35 20 7 355 351 358 354 345 347 349 346 344 342 340 340 338 337 335 334 334 334 335 334 333 332 331 330 329 328 326 325 324 321
194 201 188 186 193 192 191 193 192 189 183 181 174 163 162 157 157 157 144 144 135 132 147 141 125 116 109 119 123 123 121 121 113 101 109 112 146 167 189 302 305 234 263 213 321 241 237 316 50 57 47 35 31 12 358 353 355 355 347 347 344 343 343 341 338 337 337 337 335 334 334 334 334 334 333 332 330 330 329 328 326 326 325 324 322
199 190 188 183 187 190 186 191 185 180 175 172 167 154 146 142 138 137 128 132 123 119 117 110 117 125 128 133 125 117 112 107 94 107 104 117 130 137 181 211 262 312 218 279 316 324 104 70 88 58 23 31 14 356 346 346 354 348 343 343 341 338 340 338 337 336 335 333 332 332 332 332 331 330 328 327 326 325 325 324 324 323 322 321 320
193 191 185 185 182 180 182 182 172 162 154 154 155 151 146 138 141 131 125 130 124 125 121 117 120 124 123 123 120 116 102 85 75 75 78 72 79 109 154 183 162 253 329 276 118 307 112 65 17 14 41 23 357 347 344 344 343 336 338 336 336 337 337 335 335 335 332 329 328 327 326 326 325 323 322 322 323 324 322 322 322 321 321 320 319
187 186 178 176 172 169 163 156 146 144 145 142 139 134 134 128 128 123 125 121 111 102 106 118 124 122 118 103 102 98 85 82 83 82 85 85 89 101 100 83 166 213 202 303 303 241 272 57 56 343 356 358 347 340 339 336 331 329 336 336 337 339 333 330 333 333 329 326 325 325 325 324 322 322 322 324 324 323 322 321 321 321 320 320 319
172 165 167 162 156 150 144 142 146 140 136 135 130 126 128 115 113 113 118 124 121 115 109 118 124 118 109 100 103 102 99 96 89 79 73 98 102 99 94 85 77 85 133 187 318 280 108 322 6 15 340 340 340 331 331 331 337 332 338 339 337 329 323 326 328 326 324 324 325 326 327 326 323 324 324 324 323 323 322 322 321 320 320 319 318
175 167 159 154 150 146 146 139 131 133 128 126 126 125 118 117 124 118 120 114 111 115 111 102 112 110 110 109 104 108 110 106 87 82 80 75 91 93 86 88 82 54 93 220 229 258 336 307 323 329 342 338 331 336 335 328 330 338 343 336 334 328 334 333 321 319 318 322 327 329 328 327 325 324 324 323 322 321 321 321 320 320 320 318 316
154 154 153 152 144 139 134 132 132 133 123 124 124 124 120 118 117 121 121 116 113 112 109 99 97 110 112 109 108 111 116 95 84 86 84 84 89 85 81 86 81 57 62 329 263 290 302 95 345 332 339 341 335 344 337 338 338 341 340 337 334 336 334 330 323 314 312 319 326 328 328 327 326 324 323 322 321 321 321 321 322 321 319 317 315
156 146 142 138 138 139 137 135 132 131 130 126 130 126 123 119 117 120 123 121 114 113 112 115 114 111 110 110 113 111 94 92 92 90 96 91 88 87 78 72 70 56 46 58 294 277 302 331 337 340 334 343 328 348 345 337 336 336 332 328 327 330 327 325 320 313 310 315 323 325 327 326 325 323 320 319 320 321 323 323 322 321 319 318 317
125 141 141 140 141 137 133 131 125 125 128 124 129 130 130 130 129 123 125 126 125 127 121 121 112 112 104 107 110 110 107 95 92 92 92 88 85 86 78 68 66 56 46 38 343 299 314 324 336 336 337 336 337 332 335 328 319 322 322 327 326 323 310 309 313 314 312 321 323 322 323 324 323 321 319 320 321 323 324 323 322 322 321 320 319
128 115 130 133 128 128 126 121 119 122 119 115 113 118 127 130 126 123 120 120 117 117 121 121 118 116 117 109 108 115 114 103 100 93 88 89 87 84 81 70 68 59 43 39 26 359 325 326 330 332 328 328 329 325 322 318 321 320 319 314 314 314 318 317 320 317 313 316 319 319 320 323 324 321 318 320 322 321 321 322 322 323 323 322 320
121 120 102 113 116 115 123 130 128 123 124 126 125 123 118 119 115 115 115 110 111 114 109 111 116 117 115 111 122 123 117 106 104 99 98 95 88 82 77 71 62 58 47 37 26 8 340 325 319 319 319 317 314 318 337 339 331 324 318 313 319 319 325 332 327 318 310 302 300 305 316 323 324 319 314 315 318 320 321 322 322 324 324 322 320
113 112 119 111 116 118 116 117 117 128 133 136 133 126 120 114 108 108 112 115 112 108 107 107 112 112 114 114 114 114 108 110 113 110 105 101 96 83 76 71 66 54 50 36 23 6 348 332 327 323 331 331 330 334 345 343 335 331 329 324 316 307 328 332 332 324 318 317 321 310 319 321 322 314 308 311 317 320 319 322 324 325 325 322 321
124 118 110 113 118 124 127 127 131 132 129 124 123 119 120 120 119 120 116 108 105 102 104 109 106 106 104 104 105 106 108 112 115 114 110 100 94 88 75 71 58 50 42 29 17 5 356 342 331 325 322 323 325 324 335 332 326 332 335 333 329 330 330 334 329 328 323 303 306 310 313 310 304 300 301 308 318 320 320 324 326 325 323 322 322
122 127 128 123 118 113 116 113 118 125 122 116 116 119 120 119 119 116 116 117 115 112 109 106 105 99 95 95 97 94 99 104 107 108 101 98 96 87 75 60 51 42 35 20 12 5 355 348 335 332 331 322 321 319 324 339 338 338 345 332 317 319 322 327 331 333 332 327 322 315 310 310 307 300 298 308 317 322 319 323 324 325 324 323 322
117 121 122 124 119 104 99 106 113 112 113 121 129 131 126 119 120 121 124 125 124 119 112 106 99 95 94 94 92 96 98 103 101 98 95 97 93 82 67 58 50 43 33 19 12 359 351 342 331 331 329 331 332 333 337 343 344 332 327 325 314 314 318 318 326 340 345 333 323 312 311 315 313 315 310 311 319 324 318 322 325 328 326 324 324
121 121 115 112 111 116 113 106 100 103 101 101 125 121 124 131 128 123 120 120 119 118 115 110 104 99 97 98 93 90 91 91 95 99 98 92 87 85 79 65 55 45 30 19 6 359 349 341 336 334 333 334 332 331 326 329 330 326 322 323 320 320 320 317 314 334 344 332 322 315 312 317 318 321 316 314 320 328 330 330 331 329 325 325 325
118 121 120 108 110 117 118 120 116 111 111 125 131 129 130 129 125 127 125 120 116 114 115 118 119 114 106 98 99 96 100 102 106 104 98 94 87 77 72 63 58 55 38 15 360 354 347 333 327 326 325 320 324 327 325 327 324 326 323 324 321 322 325 329 326 324 347 340 324 318 315 321 321 317 314 314 326 330 331 332 330 329 327 326 327
118 122 111 111 117 120 115 115 115 123 124 134 131 131 131 130 128 123 121 120 121 120 122 119 119 119 118 112 106 109 113 119 134 132 164 117 87 81 75 69 59 40 35 27 3 350 345 330 324 318 317 317 321 326 326 326 325 324 328 325 321 321 321 321 317 314 325 332 322 318 314 320 324 321 317 317 325 328 326 329 331 329 330 329 329
127 112 119 120 119 123 123 123 123 127 127 133 130 130 130 129 125 120 118 120 121 124 122 121 123 123 124 122 124 126 136 149 159 177 169 185 115 88 70 63 50 41 25 21 20 14 348 331 320 312 317 324 321 322 323 319 324 324 326 324 324 320 317 309 306 313 317 320 316 319 316 318 327 323 316 317 326 328 328 333 335 331 330 331 329
117 115 120 123 127 126 128 126 123 125 126 133 131 131 130 127 126 121 118 118 114 117 120 123 125 126 130 132 133 138 160 182 184 184 169 141 119 99 75 69 56 29 9 11 29 14 2 340 321 309 317 325 316 316 319 328 331 327 326 322 325 320 317 308 307 303 308 320 329 321 308 315 329 323 314 317 324 324 323 323 328 331 330 330 330
138 140 141 135 135 131 129 127 123 123 130 137 134 133 131 129 125 119 114 112 110 111 112 117 122 126 131 130 130 135 156 168 199 146 129 122 110 96 84 66 55 28 2 40 19 1 352 342 330 318 316 319 313 317 325 331 330 324 320 315 317 313 309 306 301 307 318 327 332 321 309 316 325 317 310 317 320 320 325 325 330 335 330 330 330
110 118 115 128 137 138 136 134 128 127 137 140 137 135 132 128 123 114 115 114 114 115 115 119 124 128 132 136 142 152 161 176 149 124 124 114 111 104 97 93 74 27 28 44 7 358 353 344 333 323 317 313 319 326 335 339 330 323 321 318 313 318 317 314 313 320 320 331 329 324 318 312 319 317 310 313 316 320 323 322 323 330 332 330 331
138 142 141 140 140 141 141 142 133 132 137 142 140 137 133 130 123 117 118 114 115 117 120 125 127 129 137 149 155 157 162 156 132 125 122 118 111 118 115 103 95 54 44 9 354 357 353 349 343 336 329 329 337 346 347 338 336 345 337 332 333 329 320 317 316 324 321 330 325 336 323 313 323 323 314 315 317 315 319 322 323 328 332 327 327
144 144 134 125 128 141 145 146 146 139 140 144 143 139 134 134 131 128 129 121 121 126 125 127 127 133 144 160 172 169 148 134 132 125 120 119 122 127 127 113 104 63 47 8 344 346 352 352 344 342 337 350 1 358 345 342 353 358 351 336 323 320 314 316 314 319 313 315 321 339 322 316 320 321 318 316 312 300 321 321 326 325 329 323 325
132 121 136 127 124 117 128 135 137 138 137 142 144 141 140 141 137 132 134 129 130 138 139 137 140 140 153 172 179 159 143 136 131 124 122 124 129 131 132 121 95 57 38 27 0 349 348 348 347 346 345 5 359 344 334 348 354 353 345 327 321 318 313 313 314 316 317 316 332 339 325 322 325 323 331 328 322 312 315 329 328 329 322 322 326